Terminal Aerodrome Forecast
Issued by NWS Twin Cities, MN

Home | Current Version | Previous Version | Graphics & Text | Print | Product List | Glossary On
Versions: 1 2 3 4 5 6 7 8 9 10 11 12 13 14 15 16 17 18 19
000
FTUS43 KMPX 262320
TAFEAU
TAF
KEAU 262320Z 2700/2724 03005KT P6SM VCSH OVC009
     FM270100 VRB03KT 5SM BR OVC003
     FM271700 02006KT P6SM OVC015
     FM272200 03006KT P6SM OVC025=

USA.gov is the U.S. government's official web portal to all federal, state and local government web resources and services.